Date String (YYYY-MM-DD hh:mm:ss) UTC,Instrument flags,Ambient pressure (hPa),Sample flow (lpm),Bypass flow (lpm),Sample temperature (°C),Ambient temperature (°C),ASC tube jacket temperature (°C),LED temperature (°C),Box temperature (°C),Sample RH (%),Span deviation,Mass concentration (μg/m³),Mass concentration (μg/m³),Mass concentration (μg/m³)
DateTimeUTC,F1_M11,P_M11,Q1_M11,Q2_M11,T1_M11,T2_M11,T3_M11,T4_M11,T5_M11,U1_M11,ZSPAN_M11,X0_M11,X2_M11,X1_M11
2022-08-16 13:00:00,,0831.0,5.00,0.00,30.8,28.1,00.0,39.4,31.9,34.5,0000.0,0008.25,0004.44,0004.08
2022-08-16 13:01:00,,0831.0,5.01,0.00,30.7,28.2,00.0,39.4,32.0,34.5,0000.0,0008.31,0004.46,0004.09
2022-08-16 13:02:00,,0831.0,5.00,0.00,30.7,28.3,00.0,39.4,32.0,34.8,0000.0,0008.29,0004.48,0004.12
2022-08-16 13:03:00,,0831.0,5.00,0.00,30.7,28.4,00.0,39.3,32.0,34.8,0000.0,0008.16,0004.51,0004.16
2022-08-16 13:04:00,,0831.0,5.00,0.00,30.7,28.5,00.0,39.3,32.0,35.1,0000.0,0008.10,0004.60,0004.21
2022-08-16 13:05:00,,0831.0,5.01,0.00,30.8,28.6,00.0,39.3,32.1,34.6,0000.0,0008.07,0004.66,0004.25
2022-08-16 13:06:00,,0831.0,4.99,0.00,30.9,28.7,00.0,39.3,32.1,34.2,0000.0,0009.01,0004.75,0004.29
2022-08-16 13:07:00,,0831.1,5.00,0.00,31.0,28.8,00.0,39.3,32.1,34.2,0000.0,0009.06,0004.79,0004.31
2022-08-16 13:08:00,,0831.1,5.00,0.00,31.0,28.8,00.0,39.3,32.2,34.2,0000.0,0008.63,0004.85,0004.34
2022-08-16 13:09:00,,0831.0,5.01,0.00,31.0,28.9,00.0,39.3,32.2,34.3,0000.0,0008.71,0004.91,0004.37
2022-08-16 13:10:00,,0831.0,5.00,0.00,31.0,28.9,00.0,39.4,32.2,34.5,0000.0,0008.77,0004.93,0004.38
2022-08-16 13:11:00,,0831.0,5.00,0.00,31.0,29.0,00.0,39.4,32.2,34.9,0000.0,0009.03,0004.97,0004.42
2022-08-16 13:12:00,,0831.0,5.02,0.00,31.1,29.0,00.0,39.4,32.3,35.1,0000.0,0009.02,0004.98,0004.45
2022-08-16 13:13:00,,0831.0,4.99,0.00,31.3,29.1,00.0,39.4,32.4,34.6,0000.0,0009.06,0005.00,0004.46
2022-08-16 13:14:00,,0831.0,5.01,0.00,31.4,29.1,00.0,39.5,32.5,34.4,0000.0,0009.13,0005.00,0004.46
2022-08-16 13:15:00,,0831.1,5.00,0.00,31.4,29.2,00.0,39.5,32.5,34.5,0000.0,0009.04,0004.95,0004.45
2022-08-16 13:16:00,,0831.1,5.00,0.00,31.5,29.2,00.0,39.5,32.4,34.4,0000.0,0009.00,0004.92,0004.44
2022-08-16 13:17:00,,0831.2,5.00,0.00,31.5,29.3,00.0,39.6,32.5,34.5,0000.0,0008.10,0004.88,0004.42
2022-08-16 13:18:00,,0831.2,5.00,0.00,31.5,29.3,00.0,39.6,32.5,34.5,0000.0,0007.97,0004.86,0004.42
2022-08-16 13:19:00,,0831.2,5.00,0.00,31.5,29.3,00.0,39.7,32.5,35.6,0000.0,0007.96,0004.82,0004.40
2022-08-16 13:20:00,,0831.2,5.00,0.00,31.7,29.4,00.0,39.7,32.7,35.8,0000.0,0007.96,0004.77,0004.37
2022-08-16 13:21:00,,0831.2,5.02,0.00,32.0,29.2,00.0,39.7,32.8,34.7,0000.0,0008.10,0004.73,0004.32
2022-08-16 13:22:00,,0831.2,4.99,0.00,32.1,28.5,00.0,39.7,32.6,34.2,0000.0,0008.04,0004.67,0004.27
2022-08-16 13:23:00,,0831.2,5.00,0.00,32.1,28.0,00.0,39.7,32.4,34.3,0000.0,0007.92,0004.59,0004.20
2022-08-16 13:24:00,,0831.2,5.01,0.00,32.0,27.9,00.0,39.7,32.3,34.6,0000.0,0008.00,0004.56,0004.15
2022-08-16 13:25:00,,0831.2,4.99,0.00,31.9,28.0,00.0,39.8,32.2,34.7,0000.0,0008.54,0004.53,0004.12
2022-08-16 13:26:00,,0831.2,5.00,0.00,31.9,28.1,00.0,39.8,32.3,34.9,0000.0,0008.81,0004.57,0004.09
2022-08-16 13:27:00,,0831.2,4.99,0.00,31.8,28.2,00.0,39.9,32.3,35.0,0000.0,0009.00,0004.61,0004.08
2022-08-16 13:28:00,,0831.2,5.00,0.00,31.9,28.3,00.0,39.9,32.3,35.0,0000.0,0009.07,0004.62,0004.05
2022-08-16 13:29:00,,0831.2,4.99,0.00,32.0,28.4,00.0,39.9,32.5,34.6,0000.0,0009.26,0004.66,0004.03
2022-08-16 13:30:00,,0831.2,4.99,0.00,32.1,28.5,00.0,39.9,32.5,34.5,0000.0,0009.43,0004.73,0004.03
2022-08-16 13:31:00,,0831.2,5.01,0.00,32.1,28.6,00.0,39.9,32.5,34.3,0000.0,0009.59,0004.83,0004.06
2022-08-16 13:32:00,,0831.2,5.00,0.00,32.1,28.7,00.0,40.0,32.5,34.2,0000.0,0009.68,0004.91,0004.09
2022-08-16 13:33:00,,0831.2,4.99,0.00,32.0,28.8,00.0,40.0,32.5,34.0,0000.0,0009.80,0005.00,0004.13
2022-08-16 13:34:00,,0831.2,5.00,0.00,32.0,28.9,00.0,40.0,32.5,33.9,0000.0,0010.80,0005.14,0004.17
2022-08-16 13:35:00,,0831.2,5.00,0.00,32.0,28.9,00.0,40.1,32.5,33.9,0000.0,0011.35,0005.24,0004.20
2022-08-16 13:36:00,,0831.2,5.00,0.00,31.9,29.0,00.0,40.1,32.5,34.0,0000.0,0010.96,0005.31,0004.24
2022-08-16 13:37:00,,0831.3,5.00,0.00,31.9,29.0,00.0,40.1,32.5,34.1,0000.0,0010.80,0005.35,0004.26
2022-08-16 13:38:00,,0831.3,5.01,0.00,31.8,29.1,00.0,40.1,32.5,34.4,0000.0,0010.80,0005.40,0004.29
2022-08-16 13:39:00,,0831.4,5.01,0.00,31.8,29.1,00.0,40.1,32.5,34.7,0000.0,0010.92,0005.45,0004.34
2022-08-16 13:40:00,,0831.4,5.00,0.00,31.8,29.2,00.0,40.1,32.6,35.2,0000.0,0011.64,0005.53,0004.39
2022-08-16 13:41:00,,0831.5,5.02,0.00,31.9,29.2,00.0,40.1,32.7,35.1,0000.0,0011.79,0005.54,0004.41
2022-08-16 13:42:00,,0831.5,4.99,0.00,32.1,29.2,00.0,40.1,32.8,34.4,0000.0,0011.78,0005.53,0004.42
2022-08-16 13:43:00,,0831.5,5.00,0.00,32.3,29.3,00.0,40.1,32.9,34.2,0000.0,0011.63,0005.50,0004.44
2022-08-16 13:44:00,,0831.5,4.99,0.00,32.3,29.3,00.0,40.1,32.8,34.1,0000.0,0011.34,0005.46,0004.46
2022-08-16 13:45:00,,0831.6,4.99,0.00,32.3,29.3,00.0,40.2,32.8,34.1,0000.0,0010.45,0005.43,0004.50
2022-08-16 13:46:00,,0831.5,5.02,0.00,32.3,29.3,00.0,40.2,32.8,34.2,0000.0,0010.13,0005.47,0004.55
2022-08-16 13:47:00,,0831.5,4.99,0.00,32.3,29.4,00.0,40.3,32.8,34.3,0000.0,0010.07,0005.54,0004.61
2022-08-16 13:48:00,,0831.5,5.00,0.00,32.2,29.4,00.0,40.3,32.8,34.4,0000.0,0010.18,0005.57,0004.66
2022-08-16 13:49:00,,0831.6,4.99,0.00,32.2,29.4,00.0,40.3,32.8,34.6,0000.0,0010.32,0005.61,0004.72
2022-08-16 13:50:00,,0831.6,5.01,0.00,32.2,29.5,00.0,40.3,32.8,34.9,0000.0,0010.42,0005.65,0004.74
2022-08-16 13:51:00,,0831.7,5.00,0.00,32.1,29.5,00.0,40.3,32.8,34.9,0000.0,0009.64,0005.62,0004.80
2022-08-16 13:52:00,,0831.6,5.00,0.00,32.1,29.5,00.0,40.4,32.9,34.9,0000.0,0009.45,0005.68,0004.88
2022-08-16 13:53:00,,0831.7,4.99,0.00,32.1,29.5,00.0,40.4,32.9,34.9,0000.0,0009.49,0005.75,0004.94
2022-08-16 13:54:00,,0831.6,5.01,0.00,32.1,29.0,00.0,40.3,32.7,35.1,0000.0,0010.09,0005.89,0005.03
2022-08-16 13:55:00,,0831.6,5.01,0.00,32.1,28.4,00.0,40.3,32.6,35.1,0000.0,0010.57,0006.03,0005.11
2022-08-16 13:56:00,,0831.7,5.00,0.00,32.3,28.1,00.0,40.2,32.6,34.8,0000.0,0010.74,0006.14,0005.20
2022-08-16 13:57:00,,0831.7,5.01,0.00,32.3,28.0,00.0,40.2,32.6,34.8,0000.0,0010.69,0006.16,0005.26
2022-08-16 13:58:00,,0831.7,5.00,0.00,32.3,28.1,00.0,40.2,32.5,34.9,0000.0,0010.66,0006.16,0005.30
2022-08-16 13:59:00,,0831.7,4.99,0.00,32.2,28.2,00.0,40.2,32.5,35.1,0000.0,0010.62,0006.18,0005.34
